Theta_e
316 316 315 315 316 316 316 316 316 317 317 318 318 318 318 319 319 319 319 319 319 319 319 319 319 319 320 320 319 320 319 314 311 310 311 310 319 334 344 349 348 355 363 350 348 342 337 336 334 337 340 342 340 336 343 343 340 333 323 318 313 316 314 317 315 314 313 311 323 328 330 329 326 331 333 336 333 332 332 331 334 337 337 339 342 345 346 347
316 316 315 315 315 316 315 316 316 316 317 317 317 318 318 319 319 319 319 319 319 319 319 319 319 319 319 319 320 320 317 313 309 309 310 320 338 337 342 349 352 363 356 343 339 334 331 331 331 335 338 335 343 336 339 333 342 325 318 316 315 314 318 322 320 320 315 313 323 327 330 329 328 332 333 328 327 329 328 329 332 332 335 340 342 344 344 345
316 315 315 315 315 315 316 316 316 316 316 317 317 317 318 318 318 319 319 319 319 319 318 319 319 319 319 319 320 320 315 311 311 306 311 336 348 342 342 347 355 365 340 338 339 333 330 331 333 334 335 334 337 333 334 329 334 329 320 314 316 320 321 323 324 324 322 319 323 326 328 329 331 332 335 328 326 328 325 326 328 329 331 336 340 342 343 344
316 315 315 315 315 315 315 316 315 316 316 316 316 317 317 318 318 318 318 318 318 318 318 318 319 319 319 320 321 317 313 312 300 305 309 345 356 350 344 348 358 362 340 338 339 333 332 334 335 335 332 330 332 336 329 330 325 325 323 317 319 323 320 323 325 325 324 326 326 326 328 328 331 333 333 329 326 326 327 330 329 329 333 336 339 340 342 342
315 315 315 315 315 315 315 315 315 316 316 316 316 317 317 317 317 317 317 318 318 318 318 318 319 319 319 320 319 317 314 296 299 306 312 356 362 355 347 350 358 354 341 338 336 332 332 332 333 333 331 326 329 329 330 331 331 326 323 326 326 326 321 325 325 328 321 327 327 326 325 326 332 331 331 330 324 323 327 331 332 334 336 337 338 340 342 341
315 315 314 315 315 314 315 315 316 315 316 316 316 316 317 317 317 317 317 317 318 318 318 318 319 319 320 320 317 313 301 291 304 307 364 359 356 354 349 352 358 347 337 333 333 330 329 330 331 328 326 325 325 323 328 332 331 320 324 325 328 327 323 327 327 325 319 324 324 324 328 330 328 327 332 330 327 330 335 334 334 337 338 340 341 341 340 340
314 314 314 314 314 314 315 315 315 315 315 316 316 316 316 316 316 316 316 316 317 317 318 318 318 319 319 320 314 315 300 300 308 310 360 357 353 351 352 360 361 339 330 325 329 327 326 326 329 327 326 325 325 326 329 329 331 325 320 324 324 326 324 327 326 328 322 319 324 328 330 327 326 322 330 328 328 333 335 335 336 338 340 341 339 340 340 340
313 314 314 314 314 314 314 315 315 314 315 315 316 316 316 316 316 316 316 316 317 317 318 318 318 319 320 315 313 303 304 302 309 312 332 347 352 350 350 344 336 333 325 322 321 324 322 320 324 327 324 322 324 325 328 327 327 322 321 325 325 324 324 325 326 325 325 320 324 327 326 326 326 326 328 326 328 333 334 336 337 339 339 339 339 339 340 340
314 314 314 314 314 314 314 315 314 315 315 315 315 315 316 315 315 316 316 317 317 317 318 318 318 319 321 315 308 297 297 307 311 311 321 338 345 342 341 337 332 328 323 321 321 320 318 316 319 323 318 321 327 324 327 323 320 325 323 325 324 323 324 324 324 324 324 324 321 321 325 326 327 329 326 326 331 334 335 335 336 338 337 338 338 339 339 339
314 313 313 314 314 314 314 314 314 314 315 315 315 315 315 315 315 316 316 316 317 317 318 318 318 320 315 314 305 294 303 308 312 319 324 337 339 337 333 336 330 326 321 320 318 316 314 312 315 318 315 313 316 317 322 324 321 323 324 324 323 323 323 324 322 323 324 323 317 317 321 322 323 326 316 330 333 335 334 334 336 336 336 337 338 339 340 340
313 313 313 313 314 314 314 314 315 314 315 315 315 315 315 315 315 316 316 316 316 318 318 318 320 319 314 311 299 294 306 315 316 320 331 339 334 331 326 333 331 324 321 319 317 317 315 312 313 314 314 311 316 315 316 318 321 319 317 319 322 323 323 323 322 322 323 321 318 316 315 319 318 323 319 330 334 335 333 333 334 335 335 337 338 339 340 340
313 313 314 314 314 313 313 314 314 314 315 315 314 314 315 315 315 315 316 316 317 318 318 319 321 319 314 312 304 301 311 312 312 316 329 335 330 330 328 333 330 325 321 316 317 317 317 314 315 314 307 316 310 315 316 320 318 316 314 309 310 313 317 321 320 321 322 319 318 317 312 309 315 318 322 332 334 334 333 333 333 334 335 336 337 339 339 339
313 313 313 314 313 313 314 314 314 315 314 314 314 314 314 315 315 315 316 316 317 317 319 320 321 318 313 297 304 311 312 312 311 312 313 330 327 326 325 328 330 326 322 318 316 318 318 316 315 313 315 316 312 310 313 315 311 310 308 307 305 304 304 312 320 321 320 320 319 316 304 304 313 318 328 333 333 334 332 331 333 333 335 336 337 338 338 340
313 313 314 314 314 314 314 314 314 314 313 314 314 313 314 314 315 315 316 316 318 319 319 321 318 316 309 299 307 315 316 315 315 315 313 316 321 320 321 322 325 324 322 318 317 318 318 318 316 314 317 313 311 316 314 312 312 304 305 306 299 298 300 307 313 317 315 320 319 318 306 307 310 320 330 333 334 332 330 331 332 333 334 335 336 337 338 339
313 313 314 314 313 314 314 314 314 313 314 314 313 313 313 313 315 316 318 318 318 319 321 321 318 313 303 303 313 318 334 329 319 314 314 312 316 316 318 320 320 320 319 318 315 315 319 318 316 311 308 314 314 310 307 306 303 303 299 296 297 298 301 305 308 313 312 317 320 316 308 309 313 323 330 333 333 332 329 331 332 332 333 334 335 336 337 338
314 314 314 314 314 313 313 313 313 313 313 313 312 312 314 314 317 319 319 318 320 322 322 316 315 315 305 296 304 331 329 319 319 322 320 312 313 313 317 319 320 320 318 316 318 319 316 316 310 310 310 312 308 304 302 300 299 299 299 296 297 297 299 301 307 309 316 317 318 316 307 314 316 325 330 332 332 331 329 330 331 332 333 334 335 336 337 337
313 314 313 314 313 313 314 313 313 313 312 312 312 312 314 316 320 320 322 321 320 322 319 313 315 317 298 307 316 311 309 317 324 323 320 316 313 313 313 314 315 317 319 318 317 315 313 311 312 311 311 305 305 304 297 296 295 295 298 296 298 298 299 298 304 308 314 317 313 317 311 312 318 325 329 331 331 330 329 329 331 332 333 334 335 336 336 336
314 313 313 313 314 314 314 313 313 313 311 310 310 311 309 316 320 322 321 322 321 320 318 321 315 307 299 308 303 305 313 313 321 321 318 317 314 311 310 309 310 313 315 313 315 309 311 307 307 302 303 304 302 299 297 294 296 295 295 295 297 298 299 300 299 303 315 316 314 314 311 312 319 324 327 330 331 330 329 330 330 331 332 333 334 335 335 336
313 313 313 313 313 313 313 312 312 311 310 310 311 313 315 317 317 315 315 315 313 303 298 306 301 292 294 305 309 308 314 318 317 316 317 313 313 312 311 312 310 308 306 307 304 309 306 304 305 299 299 300 301 302 299 300 299 297 297 297 297 297 298 298 302 306 314 312 312 313 311 311 319 323 326 328 330 328 329 330 330 331 332 332 333 334 335 335
313 313 313 313 313 313 313 313 312 311 309 307 305 306 308 301 300 307 313 313 308 304 304 306 308 304 305 306 306 311 315 316 313 315 317 317 312 309 308 310 309 308 305 302 303 305 305 300 298 298 300 301 302 302 302 302 302 300 299 299 298 298 299 302 303 306 309 312 312 313 313 313 318 322 325 327 329 328 328 328 329 330 330 331 332 333 334 335
313 312 313 313 313 313 312 312 312 310 309 306 304 299 295 296 294 293 298 300 303 304 304 305 307 307 305 308 310 310 306 308 315 313 315 323 314 309 305 307 303 302 304 305 304 305 305 299 299 300 301 302 302 302 301 300 301 300 299 297 297 298 298 303 304 306 311 311 309 313 313 313 318 323 325 327 327 325 326 327 328 329 330 331 331 332 333 335
312 313 313 313 313 312 312 311 310 309 308 303 302 299 299 302 304 304 300 294 301 303 303 304 307 305 310 310 311 311 310 305 305 308 312 318 311 307 304 305 302 301 303 303 302 300 298 298 300 302 302 302 302 303 302 301 300 300 298 298 296 298 300 303 304 306 308 311 305 309 309 311 318 322 325 325 326 327 328 329 328 329 329 329 331 332 333 334
312 312 312 313 312 312 311 310 309 308 304 301 299 301 303 306 307 305 303 298 296 303 302 302 300 302 304 309 311 312 304 302 300 305 310 315 308 309 305 303 301 301 302 303 299 298 295 298 301 302 302 302 301 301 301 300 300 299 298 295 296 300 299 296 300 304 308 308 304 308 309 309 315 321 323 326 326 327 329 329 330 330 329 329 330 332 332 332
312 312 312 312 312 311 311 308 307 304 302 301 301 304 308 308 306 304 300 294 294 298 301 302 302 302 303 302 308 309 304 303 304 304 313 312 306 306 304 304 300 300 300 302 301 299 298 298 303 302 301 301 300 301 300 298 298 300 299 298 298 299 300 299 301 303 305 306 308 307 308 307 310 312 317 324 327 327 327 329 329 330 331 332 332 333 333 333
312 312 313 312 311 310 308 307 301 301 303 302 303 308 307 307 306 304 297 294 294 295 303 302 303 303 305 312 311 306 306 305 306 308 311 313 307 305 303 305 302 299 301 301 301 300 300 302 303 302 301 300 300 299 300 299 296 298 301 301 301 301 299 300 301 302 298 298 304 308 299 299 307 310 316 320 323 323 325 325 326 328 329 330 329 331 333 334
312 313 313 312 312 309 307 300 300 302 301 298 303 305 307 307 306 306 298 290 287 295 302 297 304 300 309 303 308 306 305 300 307 309 312 314 314 308 306 303 304 299 301 300 300 300 301 302 302 300 300 300 300 300 301 300 297 295 299 303 302 302 300 300 300 300 294 294 299 310 300 293 304 307 312 317 319 320 322 323 325 326 328 328 329 330 332 332
313 312 312 311 311 308 300 296 302 303 297 299 304 306 307 307 308 306 294 288 288 299 295 303 302 301 307 304 306 305 291 295 308 310 310 316 310 312 304 300 303 304 304 303 298 298 302 301 301 301 300 299 299 298 301 301 297 296 302 302 302 300 300 301 300 299 296 303 303 308 304 297 298 306 311 316 316 318 318 320 323 325 326 328 328 330 331 332
313 312 311 310 309 308 301 302 302 298 299 302 307 306 306 307 309 303 293 284 286 303 298 297 301 309 306 306 308 301 298 304 299 304 310 313 312 307 306 301 302 301 304 302 294 299 303 299 300 300 299 298 298 301 301 302 299 300 302 302 301 301 300 301 300 298 298 298 296 298 305 298 297 304 312 313 311 314 315 317 320 322 325 327 328 329 331 332
312 312 311 310 309 307 306 302 301 298 303 305 306 306 308 309 305 295 290 284 302 302 310 300 310 304 301 305 303 303 301 303 298 301 309 311 313 306 303 303 303 302 304 303 298 298 303 303 303 303 300 298 300 301 302 302 299 302 302 302 302 302 302 301 299 298 298 295 293 298 301 296 291 299 306 310 310 311 313 316 319 321 323 325 327 328 330 332
312 312 311 310 306 303 301 302 300 304 305 306 306 307 309 306 297 290 286 281 301 294 303 303 300 297 301 298 298 301 298 299 301 304 306 305 307 310 307 307 302 300 300 303 303 301 300 308 309 304 301 302 301 302 303 303 303 303 301 301 301 300 299 299 299 298 297 291 295 299 300 299 292 297 306 306 309 312 314 315 318 321 322 324 327 328 329 331
311 310 309 309 301 303 303 297 301 305 306 306 307 307 305 296 290 284 280 290 301 299 303 298 295 300 296 296 292 299 299 298 299 302 299 304 302 305 304 302 303 299 297 297 299 302 301 303 303 303 308 305 303 301 303 304 304 302 298 296 295 296 297 295 295 297 290 290 295 299 299 300 292 292 302 312 316 316 315 314 315 318 320 322 324 327 329 331
308 308 309 306 306 308 298 297 302 305 306 307 306 303 292 284 286 282 284 301 292 296 293 292 296 295 296 297 296 295 295 297 299 300 298 300 299 299 300 298 299 292 292 294 294 298 298 300 302 302 310 306 302 301 301 302 302 300 297 295 292 286 290 288 291 289 290 289 293 297 298 295 296 298 303 311 315 316 317 317 317 318 320 321 323 326 328 330
307 307 307 306 308 302 304 306 307 306 306 306 304 297 288 282 278 285 288 292 293 295 292 298 294 295 295 295 293 297 297 294 298 299 300 301 300 301 303 302 301 300 290 296 293 292 295 299 300 302 302 308 304 298 296 296 299 298 296 293 289 287 286 284 285 286 287 291 295 296 298 295 295 301 306 310 315 318 319 320 320 320 320 321 322 324 327 329
306 306 303 305 306 306 307 308 307 307 305 305 298 294 287 281 281 298 291 292 292 297 296 294 295 296 295 292 294 296 293 297 296 296 299 298 299 297 300 302 300 301 294 293 293 292 287 289 297 299 297 305 304 303 301 297 296 298 299 296 294 291 286 284 285 287 288 289 293 296 295 290 296 297 306 311 317 319 321 321 322 322 321 321 322 324 326 327
306 305 303 303 304 306 306 307 307 309 305 301 292 287 281 281 286 285 288 289 293 295 293 297 294 293 292 294 296 298 297 292 297 296 296 296 296 297 298 299 300 301 295 291 294 294 293 293 294 302 302 303 302 305 305 300 297 297 300 299 294 294 294 289 288 289 289 289 290 293 292 295 299 303 308 312 315 318 320 321 322 321 322 322 320 320 323 326
304 302 303 300 304 305 307 306 308 308 303 296 287 282 282 286 284 290 289 297 295 291 292 294 294 290 289 289 295 295 300 295 296 296 294 296 298 298 300 301 300 301 298 296 293 290 292 292 300 302 303 302 303 305 304 303 293 295 297 294 296 299 298 292 296 296 295 291 290 294 297 296 299 303 304 308 311 314 317 319 320 320 321 321 320 320 321 324
300 302 297 300 303 306 305 306 310 306 302 294 285 281 287 288 291 294 297 292 293 294 292 287 288 288 287 288 290 294 296 298 294 294 290 296 294 298 298 300 303 301 302 301 295 295 291 290 296 300 298 303 305 304 305 305 300 294 294 296 300 304 301 295 287 290 290 286 289 292 293 292 296 293 304 306 307 311 314 317 319 319 320 319 320 321 321 323
299 299 301 300 303 305 305 305 307 305 300 292 285 292 294 289 296 294 296 295 297 297 290 288 288 293 289 289 288 293 295 293 292 294 292 294 291 300 297 297 301 302 302 303 299 295 297 291 294 299 302 302 305 303 300 303 304 302 297 301 298 290 291 292 291 287 285 286 286 287 292 294 295 296 300 302 306 309 311 314 316 317 318 319 320 322 322 323
298 297 292 300 304 304 304 305 305 302 295 289 286 287 295 293 296 294 296 298 298 296 290 290 287 292 292 289 291 294 294 289 293 292 290 292 291 296 296 296 297 300 301 302 299 298 299 292 291 297 299 301 302 300 295 299 302 303 300 298 299 295 294 291 292 289 290 285 287 286 290 293 298 298 300 303 306 309 311 312 314 317 318 319 320 321 323 323
296 292 290 302 303 305 305 304 303 299 293 287 288 289 295 293 296 298 299 298 296 294 292 292 294 290 293 292 294 290 294 294 293 292 293 293 292 297 295 299 296 298 301 303 300 301 296 295 290 293 299 300 295 297 297 299 297 298 296 296 295 297 297 298 295 294 290 286 283 286 286 293 296 300 303 303 305 308 310 312 314 317 318 319 321 322 323 324
298 292 291 301 304 304 303 300 298 294 292 294 295 293 296 294 298 299 300 300 297 301 296 294 293 290 292 291 291 294 293 293 294 292 293 293 294 289 296 297 298 296 301 304 302 298 296 293 292 294 296 294 295 301 302 302 302 300 298 296 297 295 291 291 290 296 293 290 286 285 288 293 295 305 307 305 305 307 309 312 314 316 319 320 321 322 323 324
293 286 289 302 303 303 297 290 293 297 295 293 292 296 295 303 298 298 299 298 298 295 299 296 295 294 292 292 292 293 293 292 294 294 295 292 295 294 295 299 298 299 301 299 299 304 303 297 295 293 295 296 299 302 305 305 304 303 301 298 298 294 292 290 285 289 293 293 295 292 289 294 300 306 307 308 307 307 307 312 314 316 318 320 321 323 324 324
291 289 299 302 303 301 293 287 293 291 290 292 295 295 297 295 295 297 294 295 294 296 294 294 293 292 294 293 293 292 293 291 295 292 295 295 295 295 296 297 299 299 302 301 303 306 310 297 293 293 296 298 300 301 301 303 304 302 302 301 298 296 296 296 295 291 292 290 292 290 291 292 301 307 307 307 308 307 306 308 312 314 316 320 321 322 323 323
293 292 294 301 303 300 291 284 285 287 289 292 293 292 296 294 294 293 293 294 293 293 292 292 294 295 292 295 294 290 294 288 295 293 292 293 293 298 297 297 299 296 300 300 299 303 295 296 295 288 288 291 295 298 298 300 300 299 299 301 301 300 298 297 295 293 293 292 292 289 288 293 300 307 307 306 306 308 308 308 311 313 315 317 320 321 323 323
293 295 294 297 302 297 289 291 288 287 288 288 290 289 291 292 295 294 293 292 295 294 293 291 293 293 293 295 293 294 295 292 290 294 293 292 293 299 297 297 299 296 302 307 308 304 297 296 294 287 285 284 285 286 288 292 295 297 299 300 301 300 298 295 294 292 290 291 293 290 291 289 296 302 306 306 305 305 306 307 310 312 314 315 317 320 322 323
290 283 291 291 294 294 294 296 293 289 288 288 287 289 291 288 293 295 295 294 295 294 292 292 293 294 293 291 290 291 291 295 290 290 290 289 293 295 296 296 297 296 306 309 307 302 298 299 297 294 291 288 291 293 296 299 296 296 298 299 299 301 302 299 296 292 292 287 292 292 293 294 300 303 303 304 304 304 306 305 308 310 311 313 315 318 320 322
294 286 287 283 292 291 290 293 291 291 287 291 284 289 287 289 290 291 295 290 293 292 292 292 292 290 290 290 289 288 291 290 292 290 289 290 292 294 296 296 296 302 307 303 304 300 295 291 294 295 296 296 297 296 299 300 297 298 298 298 299 299 300 299 296 294 294 290 291 291 293 296 297 299 301 302 302 303 304 305 304 308 311 312 314 315 326 321
286 290 292 293 287 283 286 287 290 289 291 291 287 290 287 287 288 286 291 293 293 293 288 290 290 291 291 290 290 285 289 287 289 287 291 290 291 293 292 295 295 301 301 296 300 296 293 290 295 296 294 296 297 298 299 300 299 299 299 299 299 299 299 298 298 297 297 296 295 294 295 296 297 299 302 303 303 304 304 305 305 307 308 311 312 314 315 319
294 292 292 296 287 289 289 289 291 290 289 290 288 289 286 287 286 289 288 288 290 289 290 284 286 289 289 291 291 287 288 283 285 290 288 289 289 289 288 291 296 296 296 294 295 298 294 290 296 294 292 294 296 297 299 298 299 299 298 299 300 300 299 300 300 298 298 298 299 298 296 298 299 301 301 303 304 305 305 308 309 311 318 319 314 313 315 317
290 290 288 294 293 290 290 290 290 289 286 291 286 287 288 287 286 288 289 288 285 287 291 286 287 289 289 289 290 287 289 290 289 286 292 290 289 290 289 290 290 294 295 292 293 296 292 289 296 293 291 292 295 298 299 298 298 297 298 299 300 300 300 300 300 299 300 299 299 297 297 298 300 301 304 304 304 304 308 309 310 310 313 321 318 315 315 316
295 298 296 289 286 289 290 290 288 287 286 288 286 287 289 288 287 290 288 292 288 286 288 286 289 289 290 289 289 289 292 291 292 291 293 292 287 293 289 290 294 290 292 291 293 295 294 289 294 291 288 288 294 295 295 297 298 298 297 297 298 299 297 299 299 300 297 296 297 295 294 296 299 301 303 304 304 305 305 306 308 310 314 321 321 318 315 316
298 303 299 294 285 291 287 289 288 287 282 287 288 288 288 288 290 291 287 291 291 291 290 290 290 289 287 287 287 289 292 293 293 294 294 295 296 295 295 295 294 291 291 291 294 290 291 290 288 289 286 286 292 294 294 295 296 294 296 299 299 299 300 300 301 303 302 301 297 296 297 299 301 304 302 303 304 303 304 307 307 310 313 320 322 321 318 317
Wind_Speed
21 21 20 21 22 22 21 21 22 22 22 22 21 21 21 20 20 19 18 17 17 18 18 18 18 19 19 18 18 17 16 9 8 1 5 18 14 15 12 6 10 13 15 11 11 13 9 9 11 9 9 7 5 6 7 8 4 4 4 4 6 8 5 5 5 2 1 4 8 13 12 16 12 5 5 10 2 10 11 3 6 3 5 9 11 14 16 16
21 21 21 21 22 22 22 22 22 23 22 23 22 22 21 21 20 19 20 19 19 18 18 18 18 18 19 18 16 15 12 6 6 7 18 20 14 14 17 14 14 16 13 11 15 12 14 11 13 11 11 7 4 5 9 4 9 6 2 3 9 4 6 4 4 2 1 6 5 10 15 19 14 15 9 9 7 11 8 5 6 8 9 12 14 16 16 17
21 22 21 21 22 23 22 23 23 22 23 23 22 22 20 20 21 21 20 19 18 18 18 19 19 19 18 17 14 13 8 5 3 11 19 17 24 19 19 16 17 18 13 7 11 13 16 17 13 11 8 5 6 6 9 4 10 9 3 6 9 8 4 5 5 7 1 11 6 11 10 12 12 11 9 9 14 9 12 12 8 11 13 15 15 17 17 16
22 22 22 22 22 23 23 23 24 23 23 22 22 21 21 20 21 22 21 20 19 18 17 18 19 18 17 16 13 9 2 4 5 6 3 2 7 17 21 18 19 17 8 9 11 11 4 7 9 10 6 6 4 8 6 6 5 3 7 7 7 4 6 9 8 10 4 13 13 10 6 10 13 11 9 14 12 7 5 14 21 17 18 18 19 18 17 17
23 23 23 23 23 23 23 24 25 24 24 24 24 24 23 23 22 21 22 21 20 18 18 18 19 18 16 14 12 3 1 4 5 2 5 7 7 14 19 19 19 13 11 6 7 6 9 12 9 9 5 6 6 3 11 7 7 1 13 15 12 7 6 13 8 1 3 10 15 9 13 11 8 6 11 20 15 12 14 15 14 21 21 22 21 20 17 18
22 22 22 23 23 24 24 25 25 24 25 25 25 25 24 24 23 22 22 22 20 19 18 17 17 17 16 15 6 2 0 2 2 4 5 11 9 10 17 19 20 12 9 10 9 7 8 8 10 9 6 4 8 11 3 10 7 10 11 10 12 11 8 14 14 4 8 6 10 11 10 10 12 9 14 18 14 13 17 17 13 19 22 21 20 21 19 19
23 23 23 24 25 26 25 26 25 25 25 25 25 24 23 23 24 23 22 20 20 19 19 17 16 16 14 13 1 0 2 9 6 11 5 12 12 9 12 16 15 12 10 8 7 8 9 9 11 11 8 7 8 11 10 4 9 11 11 6 10 6 12 15 14 16 0 10 11 9 8 14 10 9 11 11 3 2 12 14 14 14 16 18 19 20 22 20
25 25 25 26 26 26 26 26 26 26 25 26 25 24 24 23 23 24 22 21 20 20 19 17 15 13 11 4 0 1 1 10 17 10 10 1 10 10 10 5 11 11 11 12 11 10 10 11 13 7 8 11 3 11 6 9 10 12 13 14 11 7 10 12 12 13 7 5 5 9 13 14 17 12 10 12 3 11 13 15 16 17 17 16 18 18 18 17
26 26 28 28 28 27 27 27 27 27 26 25 26 26 25 26 23 21 22 20 20 19 18 15 13 10 6 1 1 4 10 7 6 8 5 5 9 13 11 7 6 14 11 11 11 10 10 9 10 11 8 12 8 7 7 6 10 13 15 10 9 10 11 12 12 13 13 3 10 6 13 15 9 7 13 6 6 12 15 16 18 19 18 18 18 19 18 18
26 27 28 28 28 28 28 29 27 28 27 26 26 26 26 26 24 23 21 21 19 19 16 14 10 6 1 1 2 3 8 6 4 6 7 7 9 12 10 9 12 9 8 8 7 10 12 7 13 8 3 5 3 10 3 11 5 3 11 13 14 16 15 14 12 14 12 4 10 13 12 8 5 11 4 2 11 13 16 17 17 19 20 18 17 16 16 18
27 27 27 27 26 27 26 26 27 28 27 26 26 26 26 27 25 25 22 21 19 18 15 12 11 6 3 2 4 10 6 3 2 7 8 9 9 10 11 10 12 10 11 8 11 11 11 7 8 3 2 7 1 7 8 6 4 10 6 7 13 15 15 15 14 16 9 7 11 11 13 9 8 6 10 11 14 18 18 17 18 18 17 16 17 15 13 14
27 27 26 25 26 27 28 29 30 28 29 28 28 28 27 27 26 23 22 20 19 17 13 9 7 4 1 1 7 13 2 3 2 6 3 7 5 10 10 12 14 14 12 9 10 10 10 9 7 6 5 5 12 4 11 9 11 10 10 12 12 12 14 15 15 17 10 8 8 9 7 7 8 13 9 15 17 18 20 19 18 18 16 15 15 13 13 14
25 25 26 27 28 28 27 29 29 30 30 30 31 29 28 27 26 24 21 18 13 11 9 8 7 4 1 3 12 16 14 10 6 8 3 5 2 0 1 5 14 11 13 12 11 11 10 6 6 7 9 2 1 6 2 1 3 5 5 5 6 5 9 12 13 16 15 6 9 10 5 10 15 11 11 15 17 16 17 16 16 15 15 14 14 13 12 12
26 26 28 29 29 29 29 29 30 30 30 32 31 29 29 27 25 24 20 16 13 10 8 11 5 3 2 9 5 3 9 8 5 6 5 5 4 3 4 3 4 4 4 8 10 7 10 6 7 8 2 7 6 4 9 6 3 5 6 1 4 4 11 4 6 10 14 8 11 14 10 7 10 6 15 16 19 21 18 17 17 15 15 14 14 13 14 15
25 28 28 28 31 31 30 31 30 31 31 31 31 31 29 27 24 20 16 10 8 6 10 10 5 4 2 10 4 12 15 1 6 16 9 8 7 1 7 5 7 9 10 9 3 2 6 8 5 4 5 4 6 8 10 5 2 1 3 6 2 7 11 7 5 5 11 4 13 12 9 9 9 11 16 17 18 21 20 19 18 16 15 15 14 14 14 14
23 25 26 27 28 30 32 31 32 32 32 30 30 31 28 25 21 14 8 3 5 12 10 8 5 3 2 11 3 4 2 3 8 12 5 6 9 10 10 13 7 5 4 5 6 1 5 7 7 7 4 3 5 6 7 6 6 2 8 5 7 2 7 8 6 3 12 7 11 18 7 1 1 10 15 17 20 19 19 19 18 18 18 16 15 13 13 12
25 26 28 30 30 29 31 28 28 31 30 28 32 29 24 18 13 2 6 11 8 8 5 1 5 4 1 4 2 1 4 6 5 0 3 10 13 11 7 4 4 7 8 5 3 2 1 6 3 2 5 6 5 4 4 8 9 7 1 7 5 7 4 6 9 7 6 10 8 14 7 8 5 14 16 15 19 18 16 19 19 17 16 16 14 14 14 14
27 27 30 30 32 30 27 26 29 29 29 30 28 23 18 16 5 12 11 7 5 3 3 1 3 1 12 1 5 4 1 3 3 3 7 8 14 8 6 5 5 7 3 3 1 5 5 6 4 6 4 8 7 7 10 14 8 6 4 4 7 3 5 10 3 4 2 12 14 12 4 6 5 15 16 18 18 19 20 19 20 18 16 15 14 14 16 15
29 29 28 30 30 29 29 30 28 28 30 29 23 20 9 2 1 0 5 4 2 1 1 3 4 7 3 3 4 5 3 3 6 4 4 7 4 6 5 3 4 6 3 4 3 10 3 5 3 6 12 10 12 11 12 7 2 4 5 5 3 5 7 6 5 3 6 7 10 14 12 8 7 14 15 16 18 18 17 15 14 14 15 16 15 15 15 16
29 28 29 28 28 31 33 27 27 28 29 18 13 6 0 3 2 1 2 1 4 10 11 4 11 8 15 15 4 2 3 4 2 3 3 3 10 7 6 4 3 4 6 7 3 8 5 10 11 14 10 8 5 7 9 7 8 6 3 3 7 7 9 7 4 7 4 6 11 14 14 12 14 17 19 19 15 12 11 14 14 15 15 16 15 16 18 19
26 26 28 26 28 28 28 28 26 28 24 8 10 3 5 6 5 5 13 15 14 14 15 18 17 17 16 6 2 6 7 3 2 2 2 5 4 14 6 5 3 8 9 9 9 1 7 12 15 8 5 7 6 4 4 6 8 8 7 6 9 6 11 9 2 4 1 5 7 8 11 11 16 17 17 16 16 18 18 17 17 18 17 16 19 19 18 20
25 24 25 25 27 27 29 29 28 27 15 2 5 4 1 3 2 5 4 11 6 12 14 20 15 17 16 20 15 3 4 4 13 11 4 9 5 13 5 11 9 11 7 5 6 3 9 16 7 7 5 4 4 5 5 7 9 8 8 7 7 11 7 10 6 7 3 5 7 3 6 7 12 17 16 19 22 20 19 22 23 22 19 16 17 19 19 13
26 24 25 26 26 27 28 30 29 20 5 8 7 4 0 6 6 6 5 9 17 12 17 17 15 21 20 13 7 8 9 11 12 8 3 9 10 12 11 11 11 7 6 10 12 8 9 9 8 5 7 6 6 5 5 5 5 7 7 5 11 8 1 8 3 3 1 6 2 7 8 4 5 6 15 19 19 17 18 20 19 20 22 20 21 20 18 17
26 26 24 24 26 26 28 31 21 6 9 11 6 5 2 5 7 9 4 5 10 3 13 14 17 13 16 10 7 14 15 6 8 15 6 7 12 6 9 16 11 8 13 14 15 13 12 1 9 8 7 8 9 8 6 6 9 7 8 8 10 8 8 7 6 2 2 4 4 2 4 3 8 8 8 11 13 9 11 12 12 14 17 21 21 19 19 22
26 25 24 23 23 26 29 26 4 7 12 11 5 4 6 7 7 6 3 6 4 8 4 8 6 7 5 5 9 14 11 2 13 9 4 11 8 7 8 5 7 13 12 12 11 12 13 8 4 10 7 6 8 9 11 7 8 9 11 11 11 7 5 6 5 5 5 7 1 6 1 5 8 15 17 14 11 13 11 14 18 18 16 13 14 18 18 18
26 25 26 21 22 24 27 7 2 10 14 6 2 8 10 10 6 7 0 1 9 4 1 3 6 5 7 5 8 7 9 9 11 13 5 8 7 7 3 6 6 14 13 9 11 6 10 4 7 7 11 11 11 11 9 7 9 7 12 7 8 7 5 5 3 2 4 6 6 4 7 4 2 12 14 11 16 20 13 17 19 17 16 16 16 16 17 18
25 28 23 21 20 22 12 4 4 12 9 4 8 12 12 11 8 8 0 3 4 4 5 0 1 2 4 7 11 10 4 9 9 11 7 5 11 4 8 6 4 1 5 2 1 11 6 10 9 8 9 13 12 13 11 8 6 12 8 3 1 3 6 9 5 5 7 3 4 2 3 4 3 9 13 17 18 19 17 17 18 17 16 18 17 17 18 18
30 26 23 22 19 15 5 6 10 8 9 10 9 13 13 10 10 2 1 3 4 2 1 2 4 2 1 11 14 11 3 5 5 8 16 7 5 6 8 11 12 11 9 8 17 1 13 8 13 13 10 10 15 11 5 9 10 10 1 5 7 4 5 6 4 6 6 5 12 7 4 4 4 6 13 18 15 16 18 19 19 19 19 20 20 19 20 20
28 25 24 24 24 18 6 4 3 8 5 5 12 12 10 11 2 1 1 3 1 0 1 4 4 3 2 8 9 11 1 2 1 1 12 4 6 4 11 9 8 8 8 14 13 2 5 13 16 17 12 13 6 5 10 11 13 12 4 5 4 3 4 4 6 5 4 4 12 14 7 7 6 5 7 9 17 21 21 21 21 22 23 22 20 20 20 18
29 28 23 23 21 4 1 2 8 12 10 9 10 13 13 5 1 0 1 4 2 2 1 1 2 1 5 10 5 8 5 4 2 2 9 10 11 0 3 5 4 6 7 8 13 8 4 7 14 11 12 10 6 7 10 12 17 1 3 7 12 8 3 1 3 4 1 8 14 14 8 9 8 7 10 12 15 18 16 15 16 18 19 20 21 21 20 19
27 28 23 19 9 7 7 7 7 7 5 6 11 12 4 2 2 3 7 6 3 4 1 4 3 4 3 1 1 4 7 4 5 6 4 2 4 4 0 4 2 2 3 6 11 10 4 1 4 4 10 6 6 7 8 11 9 7 3 5 4 10 6 5 2 2 6 14 7 9 10 9 10 6 6 13 18 22 22 21 22 21 23 22 20 20 20 20
28 28 26 14 11 3 1 9 7 4 9 10 9 5 1 2 4 8 6 4 0 3 5 5 2 3 5 3 4 2 5 1 3 4 11 11 11 13 11 11 10 8 9 11 11 3 9 13 2 4 7 13 8 9 9 9 10 9 6 3 8 2 2 7 3 8 12 11 2 7 6 2 14 8 8 12 15 18 19 19 22 24 24 24 23 23 20 19
30 27 29 7 11 2 7 14 11 8 5 6 4 1 1 3 6 6 5 2 1 6 1 3 7 12 5 3 3 5 6 6 2 4 9 10 13 14 14 9 8 12 8 10 3 4 8 2 8 10 4 8 10 12 9 9 11 11 12 9 7 8 8 9 6 2 5 6 3 5 5 9 2 7 13 13 17 20 22 21 21 24 25 25 24 22 19 18
28 27 15 9 11 8 10 11 9 3 1 3 0 1 2 3 7 4 11 8 1 5 5 8 15 5 5 2 3 4 3 5 4 2 5 8 10 11 10 9 6 9 3 3 10 8 6 5 14 11 10 10 12 14 13 3 5 11 5 9 10 5 4 6 5 12 10 7 4 2 4 6 9 7 8 14 17 19 20 22 22 22 23 25 25 20 20 18
28 22 7 10 3 6 7 9 6 5 2 1 3 4 6 10 0 1 0 4 4 6 9 13 5 3 3 2 3 6 7 3 6 4 4 7 12 8 12 12 8 4 3 2 3 3 16 11 5 14 7 10 13 10 8 7 4 5 8 4 7 16 5 5 6 3 3 4 5 3 6 6 8 3 6 13 14 16 19 21 22 20 17 17 11 12 15 17
18 13 10 3 5 7 7 10 2 5 3 1 5 4 12 2 3 2 1 2 3 7 13 7 1 4 2 3 2 8 9 5 7 2 3 6 6 11 6 5 10 11 8 12 3 5 3 12 7 1 7 8 13 9 8 11 10 4 9 13 13 7 7 5 5 3 0 2 8 2 4 6 7 5 5 6 10 14 13 16 17 18 17 14 14 15 17 18
12 13 10 9 7 3 7 8 1 3 2 1 4 9 3 4 2 0 3 3 5 8 5 8 5 3 4 5 3 8 9 7 4 5 2 1 1 4 6 5 6 10 10 8 6 4 8 7 1 9 7 13 11 8 10 13 6 5 9 10 3 2 4 7 8 4 7 9 6 3 8 4 3 9 2 5 6 10 11 16 18 18 15 10 14 15 17 19
9 10 9 5 5 6 11 10 2 2 1 2 8 5 1 3 3 4 0 4 4 4 2 1 4 1 2 5 5 8 8 5 5 6 2 1 2 14 5 6 1 1 8 13 10 5 6 9 5 10 15 8 8 7 5 6 11 14 9 8 10 5 11 4 2 12 8 10 3 2 2 6 10 6 2 5 7 11 9 10 12 15 14 13 13 15 17 18
6 5 7 4 10 15 15 13 2 4 1 3 4 4 2 4 2 7 6 3 3 2 3 4 2 1 4 4 4 5 6 3 6 4 4 2 1 8 8 5 11 15 15 12 11 2 4 9 6 3 9 6 6 9 14 12 8 8 5 7 5 6 9 8 9 2 4 6 3 6 2 12 6 7 8 10 10 11 12 11 12 16 15 14 14 15 16 17
8 7 4 4 14 16 16 11 4 2 1 5 2 5 2 4 3 6 8 3 2 2 2 3 2 4 4 2 5 3 3 5 5 1 3 4 3 3 15 10 6 15 12 11 3 5 6 4 13 2 6 6 7 6 12 14 14 10 7 9 4 4 1 7 1 8 7 4 4 3 6 10 6 7 10 11 12 12 12 13 13 15 15 15 16 16 16 18
3 3 5 6 18 14 13 2 4 3 3 2 4 4 6 5 3 4 8 7 3 2 5 3 4 5 2 4 3 6 3 4 1 1 2 4 7 2 10 11 10 15 15 8 10 6 5 5 12 6 6 9 4 8 13 15 15 12 12 13 12 9 4 11 11 2 3 5 7 5 17 7 4 6 10 10 10 10 11 12 12 13 15 17 16 17 17 17
4 7 5 13 18 13 9 6 1 2 2 3 4 4 5 7 5 7 6 3 3 2 2 3 1 1 4 3 2 3 4 4 1 0 1 3 6 6 7 13 14 12 9 4 7 4 4 4 6 14 13 8 9 10 12 16 14 14 11 11 9 5 5 5 6 8 2 7 4 4 4 13 7 9 10 10 9 10 10 11 12 12 14 15 16 18 18 18
3 9 11 15 11 10 7 2 3 6 6 8 13 9 6 6 6 6 5 4 3 2 2 2 1 2 3 2 2 3 6 2 1 2 3 4 7 6 7 17 16 11 8 6 8 3 14 0 4 8 7 5 4 4 5 7 11 12 12 9 10 11 9 10 10 6 6 1 3 1 10 5 3 6 9 10 10 10 7 7 11 10 8 10 14 16 15 14
7 8 7 3 10 7 3 7 7 8 8 11 11 10 5 6 7 9 5 6 3 3 2 2 1 3 2 2 1 2 4 2 4 7 4 7 2 6 14 14 13 8 9 6 5 11 5 4 2 2 3 6 6 4 6 1 3 6 8 11 13 9 12 7 3 2 6 8 8 7 18 2 2 2 5 6 7 9 9 8 9 10 8 10 12 12 11 13
7 4 6 6 5 3 5 6 7 8 10 10 10 10 12 7 6 8 7 7 4 2 3 3 4 5 2 2 2 2 2 0 3 4 6 3 4 3 9 13 10 4 4 7 11 6 4 4 2 5 12 11 9 10 9 9 8 1 3 8 14 18 16 6 13 3 10 4 8 7 8 2 6 1 3 8 8 7 7 7 7 9 10 11 10 12 13 13
4 8 5 4 4 5 3 4 6 8 7 10 11 6 9 9 9 6 5 4 6 8 2 3 3 3 1 6 4 3 1 3 4 4 6 5 4 3 9 8 7 6 9 13 14 6 1 3 3 3 3 6 4 5 9 2 5 14 13 9 12 18 20 16 8 7 14 3 10 9 4 2 1 3 5 9 6 9 8 5 8 9 10 10 10 11 13 14
3 2 5 6 7 1 6 3 8 9 8 11 4 6 9 10 9 6 9 2 10 7 4 0 6 10 6 7 2 2 3 5 4 3 4 5 4 5 7 6 7 6 16 9 13 3 2 3 5 6 6 6 8 11 16 15 16 12 14 15 12 13 16 19 17 15 8 7 15 4 6 6 7 5 6 8 8 6 8 9 7 6 9 11 12 11 11 11
2 2 2 2 3 5 11 7 10 10 10 10 6 7 7 9 9 8 8 8 10 6 5 4 11 10 10 6 6 2 2 4 2 1 4 3 6 6 6 4 3 9 14 7 5 3 1 2 5 9 15 14 13 14 14 13 12 13 13 16 17 15 14 19 21 7 14 13 19 6 7 6 6 8 9 11 10 9 12 12 7 4 4 6 7 9 10 12
3 3 4 3 1 5 4 11 12 9 10 8 6 6 10 11 10 8 7 7 8 7 9 2 7 9 8 6 1 1 3 6 1 2 2 4 6 6 5 4 2 11 10 9 5 1 2 4 3 10 16 16 15 14 13 11 10 12 13 16 18 18 19 20 18 12 17 14 11 10 11 13 10 8 9 11 11 10 8 1 2 4 6 7 9 11 13 15
3 2 3 3 3 6 7 6 5 7 7 7 4 5 4 8 10 12 9 5 6 5 5 6 9 9 8 5 2 1 4 3 6 7 1 2 5 0 3 2 2 3 8 5 5 2 4 5 10 12 10 13 15 11 10 14 11 12 13 13 17 19 21 21 18 15 13 14 11 6 8 12 8 7 9 9 7 2 2 2 6 8 7 5 7 10 12 13
2 1 1 4 5 4 3 3 5 6 5 5 2 7 7 5 8 9 11 8 4 2 5 7 6 9 5 6 3 3 4 5 7 8 7 4 5 0 2 3 5 9 4 5 1 1 2 4 3 5 9 9 8 10 18 18 17 11 12 14 16 20 21 18 16 10 9 11 10 7 7 9 7 9 6 5 4 5 8 7 6 7 7 6 7 10 11 12
1 1 1 1 3 4 4 4 4 4 3 3 5 8 5 9 9 9 7 4 1 3 5 5 5 4 8 8 9 4 3 7 9 8 6 6 7 6 6 8 4 4 3 4 4 4 3 0 5 5 9 6 10 11 15 19 14 11 15 20 18 11 11 11 11 13 16 14 12 16 18 8 13 10 6 7 7 8 5 5 6 7 6 5 7 7 8 9
Wind_Direction
351 348 346 346 345 343 342 340 339 337 336 335 333 332 331 330 329 326 323 324 324 322 319 317 317 318 321 323 326 326 328 321 315 226 198 242 223 208 202 192 134 158 136 119 119 137 155 161 178 171 179 178 210 195 194 209 246 146 206 209 258 243 255 240 220 192 181 112 152 149 146 131 144 150 126 101 100 128 151 123 126 40 90 130 121 132 137 143
350 346 345 344 343 341 340 338 337 336 335 333 332 330 330 328 326 324 324 326 325 320 318 316 315 319 321 322 325 326 330 287 273 250 234 247 230 202 211 186 143 154 134 128 151 169 155 174 178 173 175 199 172 220 154 213 198 212 208 165 245 198 229 199 222 180 112 141 169 153 151 149 162 140 160 126 148 149 135 104 107 108 107 110 128 139 144 150
347 346 343 342 341 339 338 337 336 334 334 332 329 328 326 325 323 322 324 322 320 320 318 315 314 319 320 321 318 329 337 306 267 265 260 235 242 215 208 183 153 159 153 154 173 167 178 177 167 167 191 197 198 212 180 226 172 217 215 237 245 225 249 268 279 276 93 135 161 156 165 140 148 140 159 148 157 162 153 140 134 142 141 141 142 149 152 156
346 344 343 340 338 338 337 335 334 332 331 329 326 325 324 321 320 323 319 318 317 316 316 313 313 319 319 317 321 325 270 271 283 252 267 242 230 201 202 171 159 165 157 156 165 169 138 129 164 181 172 220 201 226 215 199 177 184 202 229 240 218 237 251 226 244 204 154 166 160 144 132 160 151 160 148 136 188 204 181 158 166 155 152 152 154 159 161
345 344 341 339 338 336 336 334 332 331 329 328 326 324 323 322 321 318 317 314 315 314 315 315 315 316 319 313 316 9 312 11 266 238 263 320 236 196 180 162 160 164 165 139 139 150 160 163 169 188 200 208 235 247 239 218 207 170 219 229 246 290 302 279 283 257 145 171 146 149 150 166 139 151 159 158 159 187 193 200 176 154 154 154 157 160 161 166
345 343 341 339 337 336 333 333 332 330 330 327 326 324 322 321 319 317 316 313 311 313 313 314 314 317 315 312 308 205 84 301 296 297 359 28 42 148 153 155 159 155 144 133 151 160 158 171 167 183 204 206 205 216 195 217 186 243 250 243 243 251 269 285 293 336 84 154 144 166 168 143 169 178 180 172 177 199 188 167 163 158 160 159 153 155 164 167
345 343 342 339 337 335 334 332 331 330 327 327 323 322 317 317 316 314 313 309 307 310 312 314 314 314 314 308 248 311 198 268 322 239 24 46 74 94 141 146 139 140 150 142 154 152 185 172 183 193 196 219 245 228 238 215 213 240 263 239 249 230 244 261 276 281 306 166 182 169 147 163 168 169 192 199 270 147 144 153 149 147 145 151 157 165 165 169
344 343 341 339 338 336 334 333 330 328 327 324 321 316 316 312 313 312 310 306 306 306 310 311 311 308 314 335 12 318 90 247 246 271 278 351 102 104 119 109 137 141 153 167 162 175 168 185 190 179 213 199 183 208 227 230 234 232 251 256 262 265 253 259 261 268 253 185 196 155 163 184 179 175 148 217 170 140 138 137 142 145 152 159 161 165 166 166
344 343 341 340 338 336 334 332 331 327 325 322 320 316 312 313 310 307 304 303 305 303 302 307 303 295 304 338 123 334 260 233 249 273 216 150 126 121 132 131 157 151 175 174 175 175 157 203 199 192 208 217 237 249 216 212 248 232 241 268 283 266 263 260 267 266 266 187 162 169 192 194 186 95 176 180 139 141 137 138 147 150 158 166 169 169 168 170
343 342 341 339 338 335 333 331 328 326 322 319 317 313 310 310 307 304 302 300 300 299 297 298 293 291 292 181 108 230 264 215 283 300 153 122 128 134 158 148 161 171 153 194 182 178 182 186 202 202 310 307 248 246 243 210 245 146 233 246 253 259 263 265 256 264 267 238 162 178 199 201 185 142 222 152 147 139 142 147 154 156 165 169 171 172 172 171
342 341 339 338 336 334 330 327 326 325 321 317 314 311 311 308 303 302 303 301 297 294 293 282 268 236 211 217 165 237 240 103 2 30 110 126 127 150 171 163 170 166 179 177 192 186 198 196 184 146 228 233 4 256 234 250 313 278 274 257 250 255 257 261 264 261 256 264 180 188 196 177 196 196 186 157 156 151 148 156 161 163 166 171 172 172 173 176
341 339 337 335 333 332 332 330 328 324 321 316 313 314 308 304 302 300 300 298 293 286 282 262 210 188 278 124 213 221 173 156 74 48 86 131 169 201 189 165 174 181 172 173 208 203 199 192 140 181 213 147 242 312 289 263 258 264 252 263 263 255 256 248 250 256 234 243 179 177 93 152 190 211 182 158 155 156 154 161 166 167 168 170 172 170 176 179
339 337 335 334 334 333 331 330 327 323 320 316 317 313 306 302 299 298 293 292 284 267 247 218 194 206 167 268 234 243 272 272 289 327 298 203 249 166 163 196 185 182 183 178 200 203 203 175 177 210 222 205 144 185 264 309 253 252 251 232 282 291 259 242 242 247 251 226 181 142 207 201 199 202 155 161 157 155 151 161 169 169 169 171 173 174 177 179
339 337 337 336 334 332 332 329 327 323 318 320 316 310 305 301 299 295 291 281 268 251 222 198 185 176 160 245 269 246 244 255 292 286 245 188 187 234 156 196 225 214 194 198 210 189 185 183 181 219 266 239 248 10 322 323 349 304 267 247 239 296 263 237 193 222 237 207 179 169 217 230 208 196 162 165 159 157 162 167 172 172 171 173 176 176 181 187
338 337 335 334 334 333 332 330 326 322 321 320 314 309 306 304 301 298 292 276 248 205 178 164 192 136 154 265 265 266 247 2 269 249 216 165 180 147 196 173 193 206 204 210 208 168 185 167 177 210 242 228 268 295 285 297 313 273 296 252 316 208 273 284 252 191 217 229 179 177 225 214 206 172 168 167 169 163 163 168 173 176 175 175 177 179 184 188
335 336 335 334 334 332 332 331 327 323 323 320 312 309 307 307 307 304 288 236 134 155 144 138 202 225 321 294 261 348 98 163 249 245 234 187 185 201 187 187 194 195 199 251 223 247 170 145 181 200 235 190 204 217 275 318 277 268 213 264 258 242 268 337 282 223 217 186 182 182 209 91 293 177 170 173 170 171 163 170 174 179 178 176 178 180 183 181
336 334 335 334 333 332 331 327 325 323 321 320 315 309 309 313 330 47 75 121 135 141 179 143 160 224 191 226 305 193 231 227 234 34 159 197 190 200 136 145 196 203 199 239 196 211 268 166 191 198 215 222 163 159 233 257 257 258 247 218 216 229 262 267 306 307 215 163 195 200 164 207 160 167 174 178 174 170 169 174 178 180 180 179 177 178 183 187
335 334 334 333 332 331 329 327 326 323 323 320 317 304 305 306 317 90 93 97 115 143 222 265 177 264 267 323 263 230 236 264 123 198 188 198 193 189 161 172 203 199 166 229 190 188 190 224 169 214 182 199 175 174 191 229 211 228 228 259 282 277 236 249 273 285 174 186 182 195 180 211 177 164 176 181 182 175 176 177 179 181 180 178 179 182 186 189
335 334 333 332 331 330 329 329 326 326 325 322 306 293 288 326 246 154 104 149 122 43 354 213 156 156 202 198 265 343 274 234 293 228 218 140 206 190 199 183 174 147 192 172 255 183 187 222 192 204 218 196 205 199 220 242 256 219 185 213 237 251 263 230 242 273 180 210 202 188 199 195 169 179 177 184 185 183 181 178 176 181 182 180 181 185 188 194
335 333 332 331 329 329 330 327 326 327 328 330 339 353 15 3 356 300 238 208 212 233 255 209 216 277 307 288 258 258 283 266 241 258 130 168 126 165 189 182 173 163 183 193 204 210 142 209 205 210 214 212 208 207 223 234 240 250 218 217 242 249 272 257 254 254 240 204 208 201 202 183 179 182 184 182 181 186 178 180 183 186 185 184 185 188 194 197
335 332 332 329 330 327 327 326 325 327 326 318 311 4 59 0 7 322 328 284 260 252 242 251 218 225 233 279 343 30 23 310 224 284 166 161 140 135 198 162 172 192 199 193 188 250 164 220 224 212 204 197 213 217 222 242 244 231 241 239 259 244 260 265 285 286 276 164 255 239 205 195 185 184 182 175 177 189 187 185 188 190 190 187 187 191 195 204
333 331 330 329 328 329 325 325 325 326 320 268 359 34 153 40 18 298 309 297 267 230 241 240 239 245 244 248 251 325 10 298 302 266 231 164 169 161 199 179 181 200 186 187 193 212 206 226 222 198 186 187 212 222 214 217 243 241 227 235 264 258 251 288 253 253 246 193 245 179 216 224 198 185 180 179 188 194 190 185 189 186 188 190 192 194 197 191
334 331 333 328 329 329 327 321 326 321 338 4 359 320 108 352 334 308 264 265 274 235 235 237 237 236 242 239 226 149 221 219 239 266 187 154 162 198 153 183 190 180 183 187 198 197 232 248 209 178 169 193 239 236 239 247 245 242 236 225 235 250 263 279 282 256 251 194 209 169 205 238 230 206 190 193 189 197 196 194 192 189 186 188 191 192 191 191
334 332 330 332 328 330 328 321 316 318 347 321 258 225 283 339 342 326 339 252 297 242 207 219 217 228 227 203 189 176 194 215 171 256 188 153 166 162 161 184 170 175 200 194 204 208 211 267 180 163 171 183 222 234 233 239 258 249 230 232 240 242 229 215 271 352 266 289 276 206 162 124 163 185 217 223 212 205 201 200 205 210 205 194 191 192 189 188
332 332 332 332 332 331 328 318 36 353 317 308 203 232 328 341 343 340 320 300 258 274 212 265 191 243 231 109 144 178 212 251 209 222 163 165 169 132 209 163 155 203 196 192 204 221 235 239 140 177 184 195 206 232 228 208 251 262 253 224 233 227 237 256 296 334 350 310 304 126 186 254 187 193 199 196 196 211 205 200 206 205 207 205 201 197 196 199
330 331 334 334 335 339 321 335 7 354 328 298 289 344 335 337 333 328 37 15 300 268 127 274 137 274 134 186 145 174 103 234 196 219 167 184 174 175 120 195 178 202 192 171 198 222 224 176 157 186 197 206 213 225 222 184 232 246 251 217 223 228 223 247 259 15 286 258 282 167 176 259 230 189 204 201 198 207 200 205 210 205 204 203 203 200 197 198
329 332 333 337 339 343 2 320 337 336 348 314 344 331 327 327 328 318 18 304 308 218 163 108 205 217 168 163 148 144 111 259 153 202 191 199 174 168 160 191 162 181 168 153 60 228 153 183 195 197 194 205 216 225 222 187 212 246 248 300 183 176 210 236 229 202 243 275 283 297 154 204 248 226 199 199 200 207 207 210 210 208 206 207 205 201 200 199
328 331 333 335 335 338 236 284 322 320 241 263 319 319 316 320 317 194 119 342 292 171 174 219 225 145 146 165 167 176 202 127 113 231 188 177 142 169 198 188 185 174 171 146 213 48 170 186 193 204 206 210 218 215 198 185 206 239 122 228 262 219 219 238 207 215 236 252 272 252 169 243 238 246 198 185 204 213 215 211 210 210 209 211 207 204 203 201
326 328 335 331 332 309 272 189 267 267 251 316 311 309 315 313 275 107 168 229 260 13 95 82 275 80 30 151 191 222 352 253 70 237 153 145 219 115 203 202 177 173 188 183 212 196 191 190 194 199 201 223 212 194 199 193 226 241 250 301 274 267 227 208 225 213 235 198 243 253 170 222 263 252 173 194 198 204 211 211 211 209 208 208 208 208 205 202
324 325 333 334 330 329 168 213 232 247 280 301 292 307 307 303 93 29 269 231 293 324 208 172 59 289 128 161 228 248 274 308 339 69 155 169 197 151 308 135 152 164 205 210 220 198 214 200 188 188 209 213 177 208 201 214 227 53 154 243 268 281 302 304 183 172 179 234 235 237 216 186 252 239 183 168 208 208 209 215 217 215 216 213 210 206 203 200
322 322 328 338 319 310 308 291 255 249 242 286 317 305 279 16 131 137 226 227 323 244 16 29 15 12 37 211 305 256 273 281 328 134 127 113 146 191 160 102 97 142 210 224 229 218 241 279 171 229 199 192 159 203 216 215 219 206 191 203 271 281 293 294 307 101 211 250 225 222 228 175 233 270 254 204 194 198 198 205 208 210 214 213 210 209 206 201
322 322 322 339 281 278 229 283 279 335 326 325 319 337 85 194 351 202 214 347 220 321 64 308 32 360 299 252 233 194 204 297 212 176 165 179 172 180 205 188 161 179 212 207 228 145 220 225 204 272 194 187 179 197 224 211 207 196 205 175 179 265 176 257 196 239 221 235 239 207 198 256 239 226 203 210 201 202 207 207 206 209 212 212 211 208 204 202
321 320 318 316 283 231 238 246 278 291 303 308 318 356 89 133 228 211 276 308 205 11 357 320 339 316 276 321 254 222 188 230 260 231 185 188 178 200 199 192 183 185 192 206 183 136 244 250 236 235 272 200 175 189 200 220 207 192 199 187 170 209 213 225 231 321 298 268 250 197 183 232 277 263 212 201 204 199 199 207 210 210 210 211 211 206 202 200
318 318 321 310 293 262 260 271 264 242 286 296 146 70 66 202 241 184 211 251 253 19 16 6 317 289 247 183 249 165 205 222 172 243 176 187 192 193 204 212 172 204 102 140 194 180 220 233 234 189 229 170 196 203 199 188 164 208 182 175 206 213 182 208 201 219 228 228 261 224 143 227 201 247 194 200 203 206 202 203 208 212 213 214 212 202 198 198
316 307 302 305 289 275 262 282 267 162 145 299 129 182 183 220 30 227 261 332 342 359 346 325 291 311 321 295 334 31 27 294 195 173 197 175 197 200 193 200 205 181 97 117 238 153 215 230 265 211 193 157 208 206 187 172 206 196 183 142 190 222 123 226 202 170 243 261 270 192 203 190 203 242 217 195 203 207 208 208 211 212 213 217 212 200 202 204
318 317 322 267 317 296 312 337 86 139 114 173 145 198 222 178 198 32 342 312 344 354 325 319 318 30 314 314 353 11 23 20 331 274 227 192 202 200 190 192 195 191 182 205 152 203 109 243 197 63 203 191 202 180 203 154 208 200 132 208 214 110 188 257 279 222 95 15 254 168 263 292 305 316 247 224 203 211 215 217 215 215 213 202 202 200 202 204
324 318 338 324 311 263 326 352 156 125 85 286 167 233 228 303 194 95 358 37 332 323 343 16 326 61 357 324 339 6 352 346 21 14 337 223 218 221 202 223 187 201 212 183 246 187 167 250 239 172 222 226 210 184 189 188 149 124 194 215 88 179 196 197 228 264 237 240 256 194 216 266 200 256 293 186 197 226 207 211 214 218 214 191 204 201 202 203
319 306 289 268 253 312 339 345 276 175 152 234 230 230 12 261 322 319 168 356 348 336 297 87 278 257 42 2 307 360 345 24 335 23 298 264 103 2 6 336 241 327 248 212 205 237 169 271 257 200 208 210 207 188 270 248 188 210 216 150 171 193 214 210 130 231 222 235 269 289 237 238 202 242 182 200 207 215 218 225 224 223 211 201 204 206 206 207
298 298 323 315 344 346 334 332 278 169 127 246 239 271 252 239 301 290 317 337 235 245 283 221 211 331 37 328 283 328 10 346 5 13 358 307 139 26 68 306 329 332 339 316 239 224 161 222 280 234 190 205 183 158 215 216 256 248 97 189 179 135 211 179 203 162 135 256 261 277 166 246 187 199 188 188 205 213 213 210 215 221 214 205 205 202 202 204
349 346 273 344 340 340 326 317 140 185 166 221 215 237 318 322 283 283 287 334 307 18 263 318 339 307 320 263 334 343 5 17 25 282 269 334 99 88 27 356 351 312 320 297 264 224 253 134 239 269 238 176 216 178 199 204 206 214 212 206 207 221 245 189 174 199 201 197 204 238 267 248 228 199 173 193 196 208 201 207 212 216 214 210 208 205 203 204
303 244 275 359 336 332 328 354 121 192 217 253 276 281 298 289 328 302 296 300 291 222 228 270 286 266 338 329 19 1 359 336 282 84 318 18 31 317 18 5 331 341 328 343 37 335 254 185 230 229 221 208 217 181 197 202 206 211 202 211 203 185 142 183 231 162 154 190 220 177 246 269 265 185 187 188 209 201 206 201 213 218 216 209 210 210 207 205
342 320 282 346 318 333 348 11 309 253 224 238 239 258 276 277 261 262 275 348 260 281 250 235 309 357 36 32 13 16 342 337 306 27 68 52 62 65 336 357 4 330 349 35 296 18 345 280 235 233 225 206 209 210 201 207 204 213 196 217 190 186 124 179 216 239 220 235 114 186 267 261 226 184 186 186 200 210 208 196 210 218 215 212 213 213 211 207
295 263 299 295 297 332 351 30 9 14 352 345 341 327 321 327 305 341 357 16 340 341 334 12 350 20 76 82 357 358 11 276 21 20 5 76 70 69 17 12 352 355 340 358 322 354 343 249 336 292 301 287 271 268 256 226 207 214 218 202 183 201 193 207 214 184 192 252 216 305 244 266 254 181 206 196 191 205 211 198 211 224 222 221 218 220 212 210
298 293 316 274 304 315 22 24 9 354 347 339 349 322 350 335 344 345 349 357 358 338 7 309 48 70 303 82 78 7 11 9 61 53 39 17 12 60 29 5 1 3 9 6 348 341 356 313 57 349 312 268 262 317 284 273 181 216 208 209 207 194 200 211 103 102 215 198 182 144 244 209 281 268 235 213 212 204 203 207 200 219 230 215 218 220 217 216
290 247 229 291 310 350 42 13 28 348 349 341 338 335 354 348 345 327 334 323 305 348 346 12 333 315 303 71 80 64 40 96 312 48 21 344 311 43 22 3 339 345 338 338 358 318 203 267 328 220 218 229 221 215 223 229 234 290 243 213 206 201 203 169 221 149 219 238 168 206 242 241 280 318 283 232 210 223 225 208 206 208 211 219 221 220 215 210
343 318 315 321 335 335 55 13 37 1 337 349 343 330 345 326 336 326 336 328 30 4 4 294 306 272 307 34 25 62 59 69 58 325 355 307 340 12 2 326 312 296 333 353 358 337 249 270 236 256 243 250 292 304 279 277 169 218 217 209 214 212 205 205 206 198 215 207 207 224 165 238 233 174 256 235 209 211 228 205 200 215 231 232 228 221 213 210
295 286 309 342 330 33 356 7 10 6 348 336 324 310 327 324 321 337 352 333 10 355 329 331 34 29 358 41 5 13 69 9 310 279 264 339 356 316 322 280 288 342 355 1 2 348 32 336 270 285 272 274 289 279 283 291 274 229 210 219 220 217 214 209 207 222 128 142 244 186 200 146 230 242 230 246 245 233 229 237 207 224 230 221 223 223 221 218
304 266 324 19 331 308 348 345 356 334 329 333 296 315 303 327 340 4 352 10 345 15 18 341 38 28 21 23 2 21 328 324 233 181 9 319 320 330 340 294 257 6 4 360 12 54 303 281 285 341 312 312 301 289 291 290 276 267 219 209 216 219 216 219 222 189 168 203 229 173 185 172 239 225 222 228 218 218 230 235 232 231 230 225 234 232 222 216
239 278 283 325 106 318 313 291 315 319 322 328 308 317 332 338 345 6 354 332 354 6 42 8 359 358 349 342 1 272 356 356 337 71 24 323 343 339 341 324 16 21 2 335 4 327 338 232 299 330 313 309 308 306 306 308 294 273 249 219 209 212 220 222 223 202 200 217 225 208 186 199 200 214 217 227 220 225 250 234 292 286 247 215 213 218 220 219
289 349 311 348 276 286 272 289 307 315 315 315 323 295 303 349 345 346 351 356 340 336 22 27 335 345 328 344 346 313 283 242 286 306 285 2 324 91 290 220 276 14 353 330 323 333 69 282 339 325 316 308 303 306 315 331 332 305 272 241 217 212 219 221 220 209 210 231 228 198 189 223 244 223 218 227 247 311 25 267 236 239 249 232 220 224 223 224
250 190 264 307 303 269 269 288 304 313 301 295 280 318 346 338 343 341 316 300 257 318 6 334 327 322 323 320 303 272 282 306 283 267 276 264 266 298 61 288 357 316 335 308 283 293 90 265 328 325 321 311 311 344 327 321 318 288 266 252 235 214 215 219 219 202 179 207 218 211 221 228 260 245 244 284 267 253 242 236 243 251 244 228 221 229 230 227
281 224 201 252 290 304 317 274 279 310 291 296 343 323 317 318 332 327 322 280 224 28 335 316 324 342 312 323 311 299 328 300 285 282 283 263 247 248 224 253 253 234 271 273 284 263 175 325 333 327 320 269 290 318 319 316 317 300 249 230 228 238 227 222 226 206 200 186 195 220 230 202 216 212 188 246 233 237 244 255 247 266 256 212 224 245 265 260